Meteo Giornale » Osservazioni meteo Stati Uniti (USA) » Ft Stewart
ore: 16:55 - Osservazioni Meteo Ft Stewart
Lat. 31° 53' N Lon. 81° 34' W Alt. 14 metri s.l.m.
32 °C
Nuvoloso
Temp. 24 Ore
24 °C
32 °C
Est
16.7 Km/h
Dew point 23 °C
Umidità 59 %
Visibilità 10 Km
Il sole sorge alle ore 07:01
Il sole tramonta alle ore 19:51
| Data e Ora | Cielo e Fenomeni | T °C | DP °C | Um. % | Pres. hPa | Vis. km | Vento km/h | |
|---|---|---|---|---|---|---|---|---|
| Oggi h: 16:55 | Nuvoloso | 32 | 23 | 59 | 1017 | 10 | E 16.7 | |
| Oggi h: 15:55 | Poco Nuvoloso | 32 | 22 | 55 | 1017 | 10 | E 11.1 | |
| Oggi h: 14:55 | Nuvoloso | 32 | 23 | 59 | 1017 | 10 | E 13 | |
| Oggi h: 13:55 | Molto Nuvoloso | 31 | 24 | 66 | 1018 | 10 | E/NE 16.7 | |
| Oggi h: 12:55 | Molto Nuvoloso | 30 | 24 | 70 | 1019 | 10 | N 14.8 | |
| Oggi h: 11:55 | Molto Nuvoloso | 31 | 24 | 66 | 1019 | 10 | N/NE 7.4 | |
| Oggi h: 10:55 | Molto Nuvoloso | 30 | 24 | 70 | 1019 | 10 | E/NE 13 | |
| Oggi h: 09:55 | Nuvoloso | 28 | 24 | 78 | 1019 | 10 | NE 11.1 | |
| Oggi h: 09:48 | Nuvoloso | 27 | 24 | 83 | 1019 | 10 | NE 11.1 | |
| Oggi h: 09:40 | Molto Nuvoloso | 27 | 24 | 83 | 1019 | 10 | N/NE 13 | |
| Oggi h: 09:25 | Molto Nuvoloso | 27 | 25 | 88 | 1019 | 10 | NE 11.1 | |
| Oggi h: 08:55 | Molto Nuvoloso | 26 | 24 | 88 | 1019 | 10 | N/NE 9.3 | |
| Oggi h: 08:35 | Molto Nuvoloso | 25 | 24 | 94 | 1019 | 10 | N/NE 7.4 | |
| Oggi h: 08:20 | Foschia | 25 | 24 | 94 | 1019 | 3 | N 9.3 | |
| Oggi h: 08:15 | Foschia | 25 | 24 | 94 | 1019 | 2 | N 7.4 | |
| Oggi h: 07:55 | Foschia | 24 | 24 | 100 | 1019 | 5 | NE 7.4 | |
| Oggi h: 07:03 | Foschia | 24 | 24 | 100 | 1018 | 2 | N 7.4 | |
| Oggi h: 06:55 | Molto Nuvoloso | 24 | 23 | 94 | 1018 | 10 | N 0 | |
| Oggi h: 06:25 | Molto Nuvoloso | 24 | 23 | 94 | 1018 | 10 | N 7.4 | |
| Oggi h: 05:55 | Nuvoloso | 24 | 23 | 94 | 1017 | 10 | N 0 | |
| Oggi h: 05:25 | Molto Nuvoloso | 25 | 23 | 88 | 1018 | 10 | N 0 | |
| Oggi h: 05:10 | Molto Nuvoloso | 25 | 23 | 88 | 1018 | 10 | N 7.4 | |
| Oggi h: 04:55 | Nuvoloso | 24 | 23 | 94 | 1017 | 10 | N 5.5 | |
| Oggi h: 04:10 | Nuvoloso | 25 | 23 | 88 | 1018 | 10 | N 0 | |
| Oggi h: 03:55 | Coperto | 25 | 24 | 94 | 1018 | 10 | N 0 | |
| Oggi h: 03:40 | Molto Nuvoloso | 25 | 24 | 94 | 1018 | 10 | N 5.5 | |
| Oggi h: 02:55 | Molto Nuvoloso | 24 | 23 | 94 | 1018 | 10 | N 0 | |
| Oggi h: 01:55 | Sereno | 25 | 23 | 88 | 1018 | 10 | N 0 | |
| Oggi h: 00:55 | Sereno | 24 | 23 | 94 | 1018 | 10 | N 0 | |
| Ieri h: 23:55 | Sereno | 25 | 24 | 94 | 1018 | 10 | N 0 | |
| Ieri h: 22:55 | Poco Nuvoloso | 25 | 24 | 94 | 1019 | 10 | N 0 | |
| Ieri h: 21:55 | Coperto | 26 | 24 | 88 | 1019 | 10 | N 0 | |
| Ieri h: 20:55 | Coperto | 27 | 25 | 88 | 1018 | 10 | N 0 | |
| Ieri h: 19:55 | Sereno | 27 | 24 | 83 | 1018 | 10 | N 5.5 | |
| Ieri h: 18:55 | Sereno | 28 | 24 | 78 | 1018 | 10 | E 7.4 | |
| Ieri h: 17:55 | Nuvoloso | 30 | 24 | 70 | 1018 | 10 | E 9.3 | |



